Theta_e
307 307 304 303 302 301 302 300 300 300 299 299 299 299 301 303 304 308 311 324 326 327 328 328 329 330 329 328 328 328 329 330 332 333 333 336 340 341 342 341 340 341 341
306 304 302 301 301 301 301 300 301 301 300 299 299 299 299 302 303 305 308 312 320 320 321 321 322 322 323 323 324 324 325 326 327 330 331 330 331 336 339 340 339 340 339
303 303 302 301 300 301 301 301 301 301 302 302 298 298 299 299 302 303 305 306 309 317 317 317 318 319 319 319 319 320 320 322 323 324 325 329 330 329 331 334 339 339 339
304 303 303 302 303 303 302 302 302 302 302 300 299 299 299 298 298 301 304 304 304 305 311 315 315 314 315 317 318 319 319 319 320 320 321 323 325 328 329 328 331 334 339
306 304 303 302 304 304 302 303 302 302 301 300 302 300 300 299 298 302 300 300 301 302 302 310 312 311 311 312 315 315 315 316 316 318 319 319 321 322 325 328 328 328 331
306 304 303 303 303 303 301 302 301 300 300 300 304 302 299 299 299 298 298 301 299 301 300 300 299 301 311 309 310 312 313 313 314 315 317 318 319 320 321 323 325 327 327
306 304 304 303 303 302 301 301 301 300 300 299 299 299 299 298 297 297 296 296 298 299 299 299 298 299 300 311 309 309 309 310 311 312 314 316 317 317 319 320 321 323 326
306 306 304 303 303 303 302 301 301 300 300 299 297 295 294 296 297 296 295 297 295 297 298 298 296 296 296 297 301 310 307 308 308 310 313 314 316 317 317 318 319 321 323
306 306 305 304 303 302 302 302 301 301 299 300 298 297 292 291 292 296 296 296 295 295 294 294 294 295 294 293 298 301 309 307 308 310 311 312 313 315 316 317 318 319 320
304 306 304 304 303 303 302 302 303 301 300 299 298 301 296 295 293 291 294 294 294 295 293 293 293 293 292 293 299 304 309 311 309 309 310 311 312 313 315 316 317 318 319
304 304 304 302 302 302 302 302 301 300 300 298 297 296 295 293 292 291 289 292 293 293 293 292 291 291 292 293 293 299 308 311 311 309 309 310 311 312 313 315 315 316 317
303 305 303 303 303 301 301 300 299 299 298 297 296 295 294 293 291 290 288 288 288 291 291 292 291 291 292 292 298 305 307 307 309 311 310 309 309 310 311 313 314 315 316
302 302 303 304 301 300 300 299 298 296 296 295 294 293 293 293 293 291 289 287 286 287 288 289 290 291 293 291 292 303 304 304 306 309 311 309 308 309 310 311 311 312 314
304 303 304 302 301 300 299 297 296 295 293 292 291 291 291 291 291 290 289 286 284 284 285 287 289 290 291 291 295 304 295 303 304 305 307 308 308 308 308 309 309 310 311
303 301 301 299 297 297 295 294 293 292 291 290 290 289 289 289 289 289 288 288 286 282 284 285 286 288 290 290 294 295 292 300 303 304 305 306 307 307 308 308 309 308 310
300 298 297 297 295 294 293 292 291 291 290 289 290 288 287 288 288 288 288 287 286 285 284 286 286 287 289 293 294 296 293 302 304 304 304 304 305 306 307 307 307 307 308
297 297 296 294 294 292 291 290 289 289 289 288 288 288 288 288 288 288 287 287 287 286 284 287 287 288 287 288 291 291 292 291 292 302 303 303 304 305 306 306 307 307 308
294 294 293 293 292 291 290 290 290 289 289 288 288 288 288 291 287 287 286 286 286 287 285 285 286 286 286 288 288 288 292 295 292 300 303 304 304 305 305 305 306 306 307
292 292 292 291 291 291 290 290 290 290 289 288 288 288 288 289 288 287 287 286 287 289 286 284 285 286 286 287 288 289 290 291 295 301 303 304 304 304 304 305 306 306 307
290 289 290 291 292 291 291 291 290 289 288 289 290 290 290 289 288 287 288 287 287 285 287 289 291 289 287 289 290 289 289 290 291 295 298 300 302 303 304 304 305 306 306
290 291 290 290 290 291 292 290 290 289 289 288 290 290 291 293 298 297 293 289 288 288 288 287 289 291 291 291 291 292 292 293 294 292 291 292 292 294 295 300 302 303 303
289 290 289 289 289 293 299 301 300 291 291 290 290 292 290 294 292 297 298 299 297 293 292 292 292 291 291 292 293 292 292 291 288 291 288 289 291 291 292 293 299 302 303
288 288 288 289 288 289 299 300 301 293 291 288 288 287 288 291 293 289 294 298 297 299 299 294 293 292 291 290 290 290 290 291 291 293 292 290 290 290 292 295 301 302 303
288 288 288 288 287 289 298 299 299 288 287 287 287 287 288 290 289 291 291 290 291 292 294 295 293 292 291 292 291 294 294 294 294 295 295 290 294 291 292 292 299 301 302
288 288 288 287 286 286 296 297 294 288 288 287 289 290 291 288 294 298 293 293 294 293 298 300 301 301 301 301 300 296 293 292 290 291 295 293 294 292 290 292 293 299 300
288 288 287 285 289 285 292 295 294 289 286 288 289 290 294 293 297 298 294 293 289 292 294 293 294 295 297 296 298 294 292 289 290 289 293 292 291 287 288 288 291 292 292
Wind_Speed
5 5 3 2 3 3 4 4 5 5 6 6 5 7 6 6 5 3 3 14 15 15 15 16 16 16 17 16 17 17 17 17 17 17 17 16 16 14 10 4 3 3 4
5 5 4 4 4 3 3 4 4 4 4 4 5 4 6 5 5 5 3 5 12 13 13 14 14 14 14 14 14 15 15 16 16 16 17 16 15 15 15 12 5 2 1
6 6 5 4 5 3 6 5 4 4 5 3 5 4 3 4 4 5 4 3 4 9 10 10 11 11 13 13 13 13 13 14 15 15 15 15 16 15 15 15 14 6 4
7 6 5 4 4 5 4 4 3 4 4 4 3 2 2 2 1 4 3 3 2 2 4 7 8 8 9 11 12 12 12 13 14 14 14 14 14 15 15 14 14 14 11
7 6 5 5 5 5 4 3 3 3 2 3 2 3 2 1 3 2 4 3 4 3 2 1 4 3 4 6 9 10 9 10 13 13 13 13 13 13 13 14 13 13 13
7 6 5 6 5 5 3 3 3 3 2 1 2 3 2 2 1 3 4 3 3 1 1 1 3 2 3 1 4 8 9 9 11 12 12 13 13 13 13 13 13 13 12
7 6 5 5 5 5 4 3 3 3 2 2 3 4 3 3 3 2 1 1 1 2 2 1 2 3 4 5 4 5 6 7 8 9 11 14 13 12 13 13 13 13 13
7 6 6 5 6 5 5 4 3 2 2 1 3 2 3 5 4 4 1 1 1 2 3 4 4 4 3 4 6 4 1 2 4 7 11 12 12 13 13 13 14 13 13
6 7 7 6 6 4 5 4 4 5 3 0 1 5 2 3 2 3 2 2 3 2 3 3 5 4 4 4 5 7 6 3 7 11 12 12 12 13 14 14 14 14 14
7 6 7 6 6 4 5 4 4 3 4 3 1 0 1 4 4 3 3 2 3 3 3 3 4 5 5 4 7 9 12 12 10 12 11 11 12 13 14 15 14 14 15
6 7 7 6 6 4 4 5 4 4 3 3 3 2 1 2 2 3 3 4 3 2 1 2 2 2 4 4 5 7 14 15 15 15 14 14 13 12 13 14 15 15 16
4 4 5 5 5 5 5 5 5 5 4 4 2 2 3 2 2 2 1 3 3 4 3 4 3 3 4 3 5 9 12 14 16 19 18 15 13 12 14 14 15 16 17
2 4 6 6 4 6 5 6 5 5 4 3 3 2 1 1 2 2 3 3 4 3 3 3 4 4 3 3 4 9 8 13 17 18 18 13 12 14 12 12 13 15 17
4 4 5 6 5 7 5 6 4 4 5 4 4 2 2 2 2 3 3 3 3 2 2 5 3 4 4 4 6 14 4 13 15 16 15 14 15 14 15 15 15 17 18
5 6 6 7 6 6 5 6 4 3 3 2 1 1 1 1 2 3 3 4 4 3 4 4 3 5 5 4 8 5 5 10 14 10 12 15 17 17 17 18 19 18 20
7 7 7 6 7 6 6 6 3 3 3 2 1 1 1 2 3 2 2 3 3 4 6 4 5 5 5 5 8 8 7 13 13 15 15 16 19 19 19 20 21 21 20
7 6 6 6 6 5 5 5 4 3 3 1 1 0 3 2 3 3 2 2 3 3 5 4 4 4 3 6 7 5 7 6 6 16 19 21 21 22 21 20 18 17 17
6 6 6 6 5 5 4 4 3 2 1 2 3 2 4 2 4 3 3 5 4 5 4 10 4 3 6 5 6 6 6 6 5 12 18 19 19 19 18 20 21 21 19
5 4 4 3 3 3 4 4 4 4 4 4 4 3 3 3 4 3 4 5 5 6 4 4 4 3 4 3 4 5 5 5 5 14 21 22 21 22 22 21 21 18 17
5 4 3 3 3 3 3 4 4 3 4 4 5 5 5 5 6 6 7 7 6 5 4 5 6 5 4 4 3 4 7 4 7 6 11 14 16 17 19 21 20 17 15
4 3 2 1 1 2 3 3 3 4 5 6 6 6 6 7 15 15 9 5 6 5 4 4 6 8 6 7 6 5 5 7 8 5 5 4 4 6 7 14 15 17 18
4 4 4 3 3 3 6 8 7 5 5 6 6 4 3 9 10 16 19 21 18 10 9 8 6 5 9 8 7 9 8 8 5 2 2 3 3 4 5 4 13 17 18
3 3 3 2 2 3 8 12 14 4 3 4 6 3 5 5 12 6 14 20 18 20 20 11 10 9 8 8 6 7 8 8 10 7 5 10 4 7 5 7 16 18 18
1 1 3 2 2 4 11 13 14 2 1 4 5 6 7 8 6 9 9 10 10 9 10 10 10 11 9 10 8 10 10 10 9 8 8 9 6 8 4 5 15 19 20
2 2 2 4 4 5 9 10 10 3 4 5 5 6 7 7 14 21 12 11 10 11 14 19 21 21 22 19 15 4 5 6 6 7 6 8 8 6 3 7 6 16 19
2 3 4 3 3 4 10 13 12 4 4 4 6 6 14 14 19 19 12 9 7 8 8 9 8 10 11 8 16 7 4 7 7 4 3 4 4 3 3 3 4 5 5
Wind_Direction
144 136 137 132 115 113 110 98 93 87 85 96 101 108 102 96 82 57 32 71 70 70 67 63 61 60 58 53 48 43 40 38 35 33 29 26 31 27 17 14 58 58 45
142 143 138 136 132 137 113 110 104 104 97 95 84 95 123 124 115 105 86 65 77 71 69 65 59 56 51 47 44 43 37 33 32 30 26 26 24 26 23 15 344 355 9
159 149 142 139 138 127 115 96 82 79 84 77 72 71 100 141 137 131 120 105 75 78 74 65 58 53 49 45 40 36 34 30 24 22 23 19 17 20 18 18 17 348 317
152 150 137 138 149 117 110 102 102 82 95 87 74 43 87 97 145 154 148 136 127 80 56 77 70 64 52 43 42 37 30 27 19 13 11 11 10 6 5 6 7 8 6
155 142 144 146 139 109 110 112 62 95 69 66 111 98 32 192 177 185 168 165 172 152 178 283 85 103 71 51 31 31 26 15 13 6 2 2 360 358 354 353 354 354 355
154 142 138 144 134 112 102 84 116 67 114 109 41 13 21 344 209 184 200 185 204 188 231 290 344 320 198 197 347 8 4 3 4 5 2 358 352 347 343 341 340 340 341
146 144 143 143 135 132 149 142 110 102 46 48 44 351 350 22 23 237 145 48 331 256 232 253 291 296 303 314 332 342 1 354 351 350 343 344 340 339 336 332 329 326 325
150 153 153 159 146 127 133 149 135 108 86 72 121 97 9 335 0 27 50 125 182 11 16 2 339 318 324 329 306 299 83 338 341 329 333 333 333 331 328 324 320 316 314
158 151 156 151 152 140 161 171 151 148 153 311 111 135 81 237 321 328 331 353 25 40 6 25 47 18 349 334 330 324 291 268 293 313 316 315 317 320 322 320 316 311 307
164 153 156 161 168 167 166 175 167 152 129 174 4 182 123 146 190 314 325 331 341 55 48 16 12 6 12 6 345 322 307 287 281 297 310 308 303 313 314 312 311 309 304
165 163 167 164 161 172 165 163 148 151 152 139 165 150 84 71 92 134 250 310 352 1 340 339 331 339 337 345 333 317 318 307 286 286 292 295 301 302 307 308 307 307 303
167 167 145 145 141 137 144 144 129 129 132 110 112 123 157 166 183 141 182 267 237 293 314 320 322 317 314 318 325 340 335 336 324 297 284 284 288 296 300 304 302 303 301
140 153 134 132 130 126 125 116 113 113 115 109 123 131 117 143 141 155 152 240 232 273 291 292 291 293 289 310 304 313 336 336 330 328 295 283 284 292 288 289 300 303 300
139 130 95 95 117 116 116 111 107 111 108 108 116 129 153 192 170 173 186 178 304 288 308 253 272 264 278 285 278 306 307 320 318 306 311 291 281 278 280 286 292 295 296
112 106 111 113 113 106 115 102 96 85 78 80 54 105 204 252 218 205 187 175 178 260 271 254 254 258 259 268 271 266 267 287 296 305 309 303 289 281 276 276 282 286 286
96 96 95 99 94 104 99 98 99 88 85 42 53 347 272 266 277 257 244 225 199 211 276 190 240 239 255 271 266 271 266 278 279 275 284 290 289 286 281 281 281 278 278
102 103 109 110 108 106 100 98 97 100 95 11 343 254 279 250 274 285 283 269 254 199 254 267 233 250 243 252 267 272 272 254 256 275 292 292 280 269 273 277 283 283 283
95 115 124 126 125 118 122 125 132 136 194 263 278 297 288 318 313 295 281 274 253 257 227 277 242 253 229 252 245 262 265 257 248 270 284 282 277 274 275 275 270 272 274
90 102 114 134 144 149 153 179 192 213 222 226 233 224 252 271 282 280 276 266 254 267 246 225 264 244 256 247 267 256 255 262 261 269 278 274 272 274 275 272 275 273 270
105 101 106 130 151 171 200 225 226 240 257 232 223 232 248 251 252 264 264 259 261 254 244 242 264 265 247 258 226 265 281 250 271 271 274 276 275 270 270 271 264 271 280
84 87 78 19 326 249 238 224 242 241 230 244 243 231 237 255 284 299 297 264 247 246 250 256 266 271 277 277 262 265 263 277 283 232 251 254 251 265 266 275 273 272 277
36 38 28 24 10 337 319 300 301 224 244 241 249 240 289 289 289 291 297 297 289 272 265 266 267 265 251 251 247 263 260 266 283 224 220 268 217 255 249 238 256 266 269
43 40 30 26 342 301 304 307 304 295 231 243 250 270 260 246 290 272 284 289 289 286 286 282 282 263 259 248 240 246 232 244 258 248 231 267 212 255 236 253 264 268 272
60 331 303 286 276 284 310 308 300 81 271 262 254 252 266 276 268 277 264 263 260 256 268 272 259 259 242 251 222 246 249 258 250 261 258 260 254 256 245 242 260 269 269
288 277 282 320 329 318 334 321 317 282 281 273 267 265 269 262 280 288 276 269 266 267 266 277 280 274 271 273 278 236 262 254 244 248 218 234 245 249 234 261 258 261 264
296 340 349 18 15 2 339 325 311 270 267 262 255 254 287 290 290 295 293 283 269 289 290 271 276 282 294 281 286 279 261 260 250 273 240 233 221 169 258 252 244 256 266